Find Starlink 5337

NORAD ID: 55284 Int'l Des: 2023-010 Owner: SPXS Country: US Constellation: starlink operational
LEOCIRCULAR

Current View

Loading 3D Globe...

About Starlink 5337

Starlink 5337 (NORAD 55284) is a starlink constellation satellite (v1.5) launched Jan 19, 2023 by SPXS of US. It operates in LEO, CIRCULAR orbit with a mass of 305.00 kg.

About Starlink 5337

Description loading...

Upcoming Passes

Passes for default location (London). Set your location on the main map for personalized predictions.

Altitude History

Loading altitude history...

Two-Line Element Set

1 55284U 23010R 26171.32320895 -.00000244 00000-0 -12647-4 0 9995
2 55284 69.9989 145.5063 0004009 262.9275 97.1428 14.98329924188140
Epoch: Jun 20, 2026 • Age: 24 hours

Current Status

Altitude 578.6 km
Velocity 7.57 km/s
Sub-Earth Point 36.71°N, 129.61°E
Launch Date Jan 19, 2023
Age 3.4 years
Type internet

Technical Details

Classification Payload
Mass 305.00 kg
Dry Mass 290.00 kg
Total Mass 305.00 kg
Length 0.20 m
Diameter 2.80 m
Span 9.00 m
Shape Box + pan
Manufacturer SPXS
Bus Type Starlink
Phase Status In Orbit
Owner/State SPXS/US

Most Searched